Chesterfield, MO

7:34 PM CST on December 03, 2016 (GMT -0600)
Spirit Of Saint Louis

Weather History for KSUS - December, 2013

Change the Weather History Date:

Sunday, December 1, 2013

  Actual Average Record
Temperature  
Mean Temperature 42 °F -  
Max Temperature 57 °F 48 °F 71 °F (2012)
Min Temperature 27 °F 30 °F 15 °F (2002)
Degree Days  
Heating Degree Days 23    
Moisture  
Dew Point 32 °F    
Average Humidity 77    
Maximum Humidity 92    
Minimum Humidity 47    
Precipitation  
Precipitation 0.00 in - - ()
Sea Level Pressure  
Sea Level Pressure 30.06 in    
Wind  
Wind Speed 0 mph (NW)    
Max Wind Speed 5 mph    
Max Gust Speed -    
Visibility 10 miles    
Events      
Averages and records for this station are not official NWS values.
T = Trace of Precipitation, MM = Missing Value Source: NWS Daily Summary

Daily Weather History Graph

Daily Weather History Graph

Search for Another Location

Airport or City:

Trip Planner

Search our weather history database for the weather conditions in past years. The results will help you decide how hot, cold, wet, or windy it might be!

Date:

Astronomy

Dec. 01, 2013 Rise Set
Actual Time 7:01 AM CST 4:41 PM CST
Civil Twilight 6:32 AM CST 5:10 PM CST
Nautical Twilight 5:59 AM CST 5:43 PM CST
Astronomical Twilight 5:27 AM CST 6:15 PM CST
Moon 5:20 AM CST (12/1) 3:50 PM CST (12/1)
Length of Visible Light 10h 38m
Length of Day
9h 39m
Waning Crescent, 2% of the Moon is Illuminated
Dec 1
Waning Crescent
Dec 2
New
Dec 9
First Quarter
Dec 17
Full
Dec 25
Last Quarter

Hourly Weather History & Observations

Time (CST) Temp. Windchill Dew Point Humidity Pressure Visibility Wind Dir Wind Speed Gust Speed Precip Events Conditions
12:54 AM 30.9 °F - 28.0 °F 89% 30.13 in 10.0 mi Calm Calm - N/A   Overcast
1:54 AM 30.0 °F - 27.0 °F 88% 30.12 in 10.0 mi Calm Calm - N/A   Clear
2:54 AM 28.0 °F - 26.1 °F 92% 30.13 in 10.0 mi Calm Calm - N/A   Clear
3:54 AM 28.0 °F - 26.1 °F 92% 30.12 in 9.0 mi Calm Calm - N/A   Clear
4:54 AM 27.0 °F - 24.1 °F 89% 30.12 in 9.0 mi Calm Calm - N/A   Clear
5:54 AM 27.0 °F - 25.0 °F 92% 30.12 in 8.0 mi Calm Calm - N/A   Clear
6:54 AM 27.0 °F - 25.0 °F 92% 30.14 in 7.0 mi Calm Calm - N/A   Clear
7:54 AM 28.9 °F - 26.1 °F 89% 30.16 in 7.0 mi Calm Calm - N/A   Clear
8:54 AM 36.0 °F - 33.1 °F 89% 30.16 in 7.0 mi Calm Calm - N/A   Clear
9:54 AM 44.1 °F - 37.0 °F 76% 30.16 in 10.0 mi Calm Calm - N/A   Clear
10:54 AM 48.9 °F - 37.9 °F 66% 30.13 in 10.0 mi Calm Calm - N/A   Clear
11:54 AM 53.1 °F - 37.9 °F 57% 30.09 in 10.0 mi Calm Calm - N/A   Clear
12:54 PM 55.9 °F - 37.9 °F 51% 30.06 in 10.0 mi WNW 4.6 mph - N/A   Clear
1:54 PM 57.0 °F - 37.0 °F 47% 30.03 in 10.0 mi WNW 4.6 mph - N/A   Clear
2:54 PM 57.0 °F - 37.0 °F 47% 30.01 in 10.0 mi Calm Calm - N/A   Clear
3:54 PM 57.0 °F - 37.0 °F 47% 29.99 in 10.0 mi Calm Calm - N/A   Clear
4:54 PM 45.0 °F - 36.0 °F 71% 30.00 in 10.0 mi Calm Calm - N/A   Clear
5:54 PM 41.0 °F - 34.0 °F 76% 30.01 in 10.0 mi Calm Calm - N/A   Clear
6:54 PM 39.9 °F - 34.0 °F 79% 30.00 in 10.0 mi Calm Calm - N/A   Clear
7:54 PM 39.0 °F - 34.0 °F 82% 29.99 in 10.0 mi Calm Calm - N/A   Clear
8:54 PM 37.9 °F - 33.1 °F 83% 29.98 in 10.0 mi Calm Calm - N/A   Clear
9:54 PM 36.0 °F - 32.0 °F 86% 29.97 in 10.0 mi Calm Calm - N/A   Clear
10:54 PM 35.1 °F 32.2 °F 30.9 °F 85% 29.94 in 10.0 mi NE 3.5 mph - N/A   Clear
11:54 PM 34.0 °F - 30.9 °F 89% 29.91 in 10.0 mi Calm Calm - N/A   Clear